Regional Weather Roundup
Issued by NWS Kansas City/Pleasant Hill, MO

Home | Current Version | Previous Version | Graphics & Text | Print | Product List | Glossary Off
Versions: 1 2 3 4 5 6 7 8 9 10 11 12 13 14 15 16 17 18 19 20 21 22 23 24 25 26 27 28 29 30 31 32 33 34 35 36 37 38 39 40 41 42 43 44 45 46 47 48 49 50

000
ASUS43 KEAX 300404
RWREAX

WEATHER ROUNDUP FOR EASTERN KANSAS AND NORTHWEST MISSOURI
NATIONAL WEATHER SERVICE KANSAS CITY/PLEASANT HILL MO
1100 PM CDT MON SEP 29 2014

KSZ040-057-103>105-MOZ028-029-037-043-300500-
...KANSAS CITY METROPOLITAN AREA...

CITY           SKY/WX    TMP DP  RH WIND       PRES   REMARKS
K.C. INTL      CLEAR     66  58  75 SE6       29.96R
K.C. DOWNTOWN  CLEAR     71  60  68 E3        29.94S
LEES SUMMIT    CLEAR     71  58  63 SE6       29.97S
OLATHE - IXD   CLEAR     66  59  78 SE6       29.96S
OLATHE - OJC   CLEAR     68  60  75 S3        29.96S
LAWRENCE       CLEAR     63  59  87 E3        29.95R

$$

MOZ001>008-011>017-020>025-030>033-038>040-044>046-053-054-300500-
...NORTHERN AND CENTRAL MISSOURI...

CITY           SKY/WX    TMP DP  RH WIND       PRES   REMARKS
ST. JOSEPH     CLEAR     61  57  87 CALM      29.95R
MOSBY          CLEAR     63  61  94 CALM      29.96R
WHITEMAN AFB   CLEAR     63  59  87 S2        29.95S
CLINTON        CLEAR     63  61  94 CALM      29.96F FOG
SEDALIA        CLEAR     69  58  67 S3        29.97S
WARSAW         NOT AVBL
MARSHALL       CLEAR     68  63  83 CALM      29.97S
CHILLICOTHE      N/A     62  58  86 CALM      29.97S
MOBERLY        CLEAR     63  57  82 SE3       29.98S
KIRKSVILLE     CLEAR     62  58  86 CALM      29.97F

$$

MOZ041-047>049-056>058-063>065-088>090-097-300500-
...EASTERN AND SOUTHERN MISSOURI...

CITY           SKY/WX    TMP DP  RH WIND       PRES   REMARKS
ST. LOUIS INTL CLEAR     70  58  65 CALM      29.96F
SPIRIT OF STL  CLEAR     60  57  89 CALM      29.95F
COLUMBIA       CLEAR     66  58  75 SE5       29.97F
JEFFERSON CITY CLEAR     63  59  87 CALM      29.96S
MEXICO         CLEAR    N/A N/A N/A CALM      29.97S
ROLLA          CLEAR     67  53  61 SE9       29.97S
LEBANON        CLEAR     64  57  77 CALM      29.99S
OSAGE BEACH    CLEAR     61  57  88 CALM      29.97S
SPRINGFIELD    CLEAR     64  57  78 CALM      29.97F
BRANSON        CLEAR     64  57  77 CALM      29.99F
NEVADA         CLEAR     64  59  82 SE5       29.96F
JOPLIN         CLEAR     65  59  81 E3        29.96F
WEST PLAINS    MOCLDY    63  59  87 CALM      30.00S

$$

IAZ060-094-KSZ022-034>040-054-083-096-NEZ052-066-093-300500-
...KANSAS...SOUTHEAST NEBRASKA AND IOWA...

CITY           SKY/WX    TMP DP  RH WIND       PRES   REMARKS
TOPEKA         PTCLDY    68  62  81 CALM      29.94S
MANHATTAN      CLEAR     70  59  68 S6        29.92S
EMPORIA        CLEAR     66  60  81 S8        29.95R
CHANUTE        CLEAR     65  60  84 SE3       29.96R
WICHITA        PTCLDY    73  58  59 SE12      29.92F
OMAHA          PTCLDY    68  57  68 E6        29.95R
LINCOLN        CLEAR     69  54  58 S3        29.94R
FALLS CITY     CLEAR     66  57  72 SE3       29.94R
LAMONI         CLEAR     71  56  58 S5        29.96F
DES MOINES     CLEAR     66  59  78 NE10      29.98S

$$




USA.gov is the U.S. government's official web portal to all federal, state and local government web resources and services.